TVF30KT LFPO-LIPZ

Flight info

Callsign TVF30KT
Flight time 1h 23m
Altitude 39000
Route OKASI DCT OKEKO DCT MOU DCT MADIV DCT MOKIP DCT TUFTA DCT GEVEA DCT ORSUD DCT BIBAN DCT GARLO DCT INVOP DCT SRN DCT DESIP DCT PEXUG DCT LEGLO DCT OSKOR DCT NEVNI DCT ELTAR DCT ADOSA L612 ALBET
Aircraft B738/M-SDE2E3FGHIRWXY/LB1

Departure

Time 2026-05-07 16:19
Airport Paris-Orly Airport (LFPO)

Arrival

Time 2026-05-07 17:43
Airport Venice Marco Polo Airport (LIPZ)
Time Latitude Longitude Altitude Speed Heading
2026-05-07 15:59 48.72546 2.36024 292 ft 0 kts 13°
2026-05-07 16:15 48.72539 2.36022 299 ft 5 kts 13°
2026-05-07 16:15 48.72499 2.36008 302 ft 6 kts 12°
2026-05-07 16:15 48.72476 2.36040 303 ft 0 kts 258°
2026-05-07 16:16 48.72472 2.36003 301 ft 12 kts 259°
2026-05-07 16:17 48.72480 2.35827 299 ft 19 kts 276°
2026-05-07 16:17 48.72450 2.35638 301 ft 18 kts 229°
2026-05-07 16:17 48.72348 2.35634 298 ft 15 kts 173°
2026-05-07 16:17 48.72251 2.35609 300 ft 14 kts 193°
2026-05-07 16:18 48.72157 2.35625 298 ft 13 kts 163°
2026-05-07 16:18 48.72075 2.35675 301 ft 13 kts 148°
2026-05-07 16:18 48.72018 2.35776 299 ft 13 kts 120°
2026-05-07 16:18 48.71978 2.35891 303 ft 12 kts 114°
2026-05-07 16:19 48.71970 2.36015 298 ft 12 kts 76°
2026-05-07 16:19 48.72050 2.36451 302 ft 86 kts 74°
2026-05-07 16:19 48.72279 2.37712 335 ft 157 kts 75°
2026-05-07 16:19 48.72642 2.39429 1036 ft 177 kts 70°
2026-05-07 16:20 48.72967 2.41163 2374 ft 171 kts 73°
2026-05-07 16:20 48.73276 2.42916 3363 ft 173 kts 73°
2026-05-07 16:20 48.73603 2.44731 4037 ft 189 kts 73°
2026-05-07 16:20 48.73978 2.46815 4310 ft 219 kts 75°
2026-05-07 16:21 48.74175 2.49256 4557 ft 247 kts 86°
2026-05-07 16:21 48.74250 2.51975 5030 ft 265 kts 87°
2026-05-07 16:21 48.74319 2.54793 5919 ft 269 kts 89°
2026-05-07 16:21 48.73981 2.57577 6793 ft 273 kts 115°
2026-05-07 16:22 48.72820 2.59846 7629 ft 277 kts 143°
2026-05-07 16:22 48.71087 2.61112 8470 ft 280 kts 167°
2026-05-07 16:22 48.69157 2.61631 9339 ft 284 kts 172°
2026-05-07 16:22 48.67191 2.62071 10178 ft 288 kts 173°
2026-05-07 16:23 48.65157 2.62497 10607 ft 307 kts 178°
2026-05-07 16:23 48.62990 2.61962 10839 ft 327 kts 203°
2026-05-07 16:23 48.60920 2.60427 11469 ft 335 kts 208°
2026-05-07 16:23 48.58852 2.58777 12260 ft 338 kts 209°
2026-05-07 16:24 48.56767 2.57112 13122 ft 340 kts 208°
2026-05-07 16:24 48.54659 2.55451 13914 ft 344 kts 208°
2026-05-07 16:24 48.52525 2.53791 14623 ft 347 kts 208°
2026-05-07 16:24 48.50362 2.52120 15325 ft 351 kts 208°
2026-05-07 16:25 48.48147 2.50545 16014 ft 356 kts 199°
2026-05-07 16:25 48.45681 2.50049 16689 ft 363 kts 178°
2026-05-07 16:25 48.43209 2.50879 17385 ft 370 kts 158°
2026-05-07 16:25 48.40888 2.52591 18080 ft 374 kts 154°
2026-05-07 16:26 48.38576 2.54434 18689 ft 378 kts 153°
2026-05-07 16:26 48.36241 2.56305 19275 ft 382 kts 154°
2026-05-07 16:26 48.33882 2.58166 19891 ft 384 kts 154°
2026-05-07 16:26 48.32304 2.59391 20301 ft 386 kts 154°
2026-05-07 16:27 48.29094 2.61859 21081 ft 390 kts 154°
2026-05-07 16:27 48.26666 2.63720 21638 ft 393 kts 154°
2026-05-07 16:27 48.24220 2.65597 22202 ft 397 kts 154°
2026-05-07 16:27 48.21753 2.67492 22764 ft 400 kts 154°
2026-05-07 16:28 48.19270 2.69398 23307 ft 403 kts 154°
2026-05-07 16:28 48.16763 2.71321 23793 ft 406 kts 154°
2026-05-07 16:28 48.14237 2.73258 24271 ft 409 kts 154°
2026-05-07 16:28 48.11702 2.75199 24724 ft 411 kts 154°
2026-05-07 16:29 48.09149 2.77149 25183 ft 413 kts 154°
2026-05-07 16:29 48.06563 2.79036 25627 ft 415 kts 157°
2026-05-07 16:29 48.04815 2.80194 25907 ft 416 kts 158°
2026-05-07 16:29 48.02138 2.81882 26332 ft 418 kts 159°
2026-05-07 16:30 47.99440 2.83548 26748 ft 421 kts 159°
2026-05-07 16:30 47.96728 2.85225 27163 ft 423 kts 159°
2026-05-07 16:30 47.94001 2.86925 27556 ft 426 kts 159°
2026-05-07 16:30 47.91263 2.88644 27951 ft 428 kts 158°
2026-05-07 16:31 47.88512 2.90381 28336 ft 431 kts 158°
2026-05-07 16:31 47.85747 2.92129 28716 ft 433 kts 158°
2026-05-07 16:31 47.82970 2.93887 29097 ft 435 kts 158°
2026-05-07 16:31 47.80176 2.95653 29450 ft 437 kts 158°
2026-05-07 16:32 47.77368 2.97427 29780 ft 440 kts 158°
2026-05-07 16:32 47.74548 2.99205 30122 ft 442 kts 158°
2026-05-07 16:32 47.71712 3.00991 30380 ft 444 kts 158°
2026-05-07 16:32 47.68862 3.02784 30638 ft 446 kts 158°
2026-05-07 16:33 47.65992 3.04586 30897 ft 449 kts 159°
2026-05-07 16:33 47.63107 3.06397 31153 ft 451 kts 159°
2026-05-07 16:33 47.60211 3.08213 31404 ft 453 kts 159°
2026-05-07 16:33 47.57308 3.10030 31730 ft 452 kts 159°
2026-05-07 16:34 47.54417 3.11838 32123 ft 451 kts 159°
2026-05-07 16:34 47.51527 3.13641 32484 ft 450 kts 159°
2026-05-07 16:34 47.48638 3.15439 32790 ft 451 kts 159°
2026-05-07 16:34 47.45750 3.17235 33103 ft 451 kts 159°
2026-05-07 16:35 47.42859 3.19030 33434 ft 450 kts 159°
2026-05-07 16:35 47.39973 3.20821 33766 ft 450 kts 159°
2026-05-07 16:35 47.37088 3.22609 34045 ft 450 kts 159°
2026-05-07 16:35 47.34198 3.24399 34291 ft 450 kts 159°
2026-05-07 16:36 47.31312 3.26184 34536 ft 450 kts 159°
2026-05-07 16:36 47.28424 3.27968 34783 ft 450 kts 159°
2026-05-07 16:36 47.25534 3.29752 35025 ft 450 kts 159°
2026-05-07 16:36 47.22649 3.31530 35273 ft 449 kts 159°
2026-05-07 16:37 47.19766 3.33305 35484 ft 450 kts 159°
2026-05-07 16:37 47.16878 3.35080 35707 ft 450 kts 159°
2026-05-07 16:37 47.13990 3.36855 35958 ft 449 kts 160°
2026-05-07 16:37 47.11104 3.38625 36196 ft 449 kts 160°
2026-05-07 16:38 47.08221 3.40392 36389 ft 450 kts 160°
2026-05-07 16:38 47.05332 3.42160 36612 ft 450 kts 160°
2026-05-07 16:38 47.02445 3.43925 36839 ft 449 kts 160°
2026-05-07 16:38 46.99561 3.45686 37045 ft 449 kts 160°
2026-05-07 16:39 46.96675 3.47446 37245 ft 449 kts 160°
2026-05-07 16:39 46.93790 3.49204 37462 ft 449 kts 160°
2026-05-07 16:39 46.90908 3.50958 37671 ft 449 kts 160°
2026-05-07 16:39 46.88026 3.52709 37857 ft 449 kts 160°
2026-05-07 16:40 46.85140 3.54461 38039 ft 449 kts 160°
2026-05-07 16:40 46.82253 3.56213 38183 ft 450 kts 160°
2026-05-07 16:40 46.79364 3.57964 38361 ft 450 kts 160°
2026-05-07 16:40 46.76511 3.59690 38566 ft 449 kts 160°
2026-05-07 16:41 46.73664 3.61715 38688 ft 454 kts 147°
2026-05-07 16:41 46.71346 3.64866 38754 ft 461 kts 129°
2026-05-07 16:41 46.69713 3.68818 38856 ft 465 kts 112°
2026-05-07 16:41 46.68797 3.73343 38978 ft 467 kts 105°
2026-05-07 16:42 46.68069 3.77959 38966 ft 470 kts 104°
2026-05-07 16:42 46.66595 3.87251 38978 ft 472 kts 105°
2026-05-07 16:43 46.64995 3.96519 38992 ft 472 kts 106°
2026-05-07 16:43 46.63382 4.05792 38992 ft 473 kts 106°
2026-05-07 16:44 46.61770 4.15066 38994 ft 473 kts 106°
2026-05-07 16:44 46.60154 4.24323 38988 ft 472 kts 106°
2026-05-07 16:45 46.58532 4.33564 38986 ft 471 kts 107°
2026-05-07 16:45 46.56907 4.42771 38986 ft 470 kts 107°
2026-05-07 16:46 46.55279 4.51950 38984 ft 468 kts 107°
2026-05-07 16:46 46.53649 4.61091 38993 ft 467 kts 107°
2026-05-07 16:47 46.52017 4.70197 38990 ft 466 kts 107°
2026-05-07 16:47 46.50380 4.79283 38992 ft 465 kts 107°
2026-05-07 16:48 46.48739 4.88354 38995 ft 464 kts 107°
2026-05-07 16:48 46.47091 4.97413 38998 ft 464 kts 107°
2026-05-07 16:49 46.45436 5.06474 38996 ft 465 kts 107°
2026-05-07 16:49 46.43765 5.15539 39005 ft 466 kts 108°
2026-05-07 16:50 46.42073 5.24617 39003 ft 467 kts 108°
2026-05-07 16:50 46.40373 5.33712 39002 ft 468 kts 108°
2026-05-07 16:51 46.38662 5.42832 38998 ft 470 kts 108°
2026-05-07 16:51 46.36957 5.51983 39001 ft 471 kts 108°
2026-05-07 16:52 46.35253 5.61150 38998 ft 472 kts 108°
2026-05-07 16:52 46.33535 5.70337 39000 ft 473 kts 108°
2026-05-07 16:53 46.31853 5.79279 38994 ft 474 kts 108°
2026-05-07 16:53 46.30115 5.88470 38988 ft 474 kts 108°
2026-05-07 16:54 46.28371 5.97651 38994 ft 473 kts 109°
2026-05-07 16:54 46.26626 6.06806 38992 ft 472 kts 109°
2026-05-07 16:55 46.24766 6.15894 38989 ft 469 kts 114°
2026-05-07 16:55 46.22368 6.24622 38991 ft 467 kts 116°
2026-05-07 16:56 46.20099 6.32491 38994 ft 466 kts 116°
2026-05-07 16:56 46.16420 6.45497 38984 ft 466 kts 116°
2026-05-07 16:57 46.13992 6.54172 38988 ft 467 kts 116°
2026-05-07 16:57 46.11558 6.62845 38982 ft 467 kts 116°
2026-05-07 16:58 46.09113 6.71517 38986 ft 467 kts 116°
2026-05-07 16:58 46.06657 6.80193 38981 ft 468 kts 116°
2026-05-07 16:59 46.04196 6.88861 38984 ft 467 kts 116°
2026-05-07 16:59 46.01730 6.97511 38974 ft 467 kts 116°
2026-05-07 17:00 45.99276 7.06093 38970 ft 466 kts 117°
2026-05-07 17:00 45.96789 7.14762 38957 ft 465 kts 117°
2026-05-07 17:01 45.95010 7.23696 38954 ft 474 kts 103°
2026-05-07 17:01 45.94002 7.33089 38990 ft 477 kts 102°
2026-05-07 17:02 45.92918 7.42547 38941 ft 480 kts 104°
2026-05-07 17:02 45.91518 7.51887 38941 ft 477 kts 109°
2026-05-07 17:03 45.89850 7.61093 38943 ft 476 kts 109°
2026-05-07 17:03 45.88217 7.70301 38938 ft 476 kts 108°
2026-05-07 17:04 45.86614 7.79499 38962 ft 475 kts 108°
2026-05-07 17:04 45.85018 7.88694 38964 ft 475 kts 108°
2026-05-07 17:05 45.83416 7.97878 38975 ft 475 kts 108°
2026-05-07 17:05 45.81804 8.07072 38957 ft 476 kts 108°
2026-05-07 17:06 45.80188 8.16239 38960 ft 474 kts 108°
2026-05-07 17:06 45.78560 8.25392 38967 ft 474 kts 108°
2026-05-07 17:07 45.77743 8.29967 38964 ft 475 kts 108°
2026-05-07 17:07 45.77476 8.31464 38962 ft 475 kts 108°
2026-05-07 17:08 45.75831 8.40643 38963 ft 476 kts 108°
2026-05-07 17:08 45.74177 8.49841 38968 ft 478 kts 109°
2026-05-07 17:09 45.72511 8.59052 38965 ft 479 kts 109°
2026-05-07 17:09 45.70836 8.68272 38966 ft 479 kts 109°
2026-05-07 17:10 45.69150 8.77502 38959 ft 479 kts 109°
2026-05-07 17:10 45.67459 8.86718 38964 ft 479 kts 109°
2026-05-07 17:11 45.65762 8.95929 38962 ft 479 kts 109°
2026-05-07 17:11 45.64471 9.05288 38762 ft 489 kts 96°
2026-05-07 17:12 45.64454 9.10189 38198 ft 494 kts 92°
2026-05-07 17:12 45.64515 9.13437 37808 ft 493 kts 92°
2026-05-07 17:12 45.64662 9.19909 36999 ft 492 kts 92°
2026-05-07 17:12 45.64768 9.24786 36420 ft 491 kts 93°
2026-05-07 17:13 45.64859 9.29661 35896 ft 490 kts 94°
2026-05-07 17:13 45.64937 9.34508 35445 ft 486 kts 94°
2026-05-07 17:13 45.65006 9.39326 35012 ft 483 kts 94°
2026-05-07 17:13 45.65070 9.44112 34578 ft 480 kts 95°
2026-05-07 17:14 45.65111 9.47327 34278 ft 479 kts 95°
2026-05-07 17:14 45.65170 9.52080 33803 ft 477 kts 95°
2026-05-07 17:14 45.65228 9.56796 33277 ft 473 kts 95°
2026-05-07 17:14 45.65285 9.61482 32826 ft 470 kts 95°
2026-05-07 17:15 45.65301 9.66141 32285 ft 467 kts 98°
2026-05-07 17:15 45.65188 9.70774 31803 ft 464 kts 99°
2026-05-07 17:15 45.65053 9.75365 31371 ft 462 kts 98°
2026-05-07 17:15 45.64945 9.79945 30947 ft 460 kts 97°
2026-05-07 17:16 45.64921 9.84500 30527 ft 458 kts 96°
2026-05-07 17:16 45.64933 9.89046 30118 ft 456 kts 96°
2026-05-07 17:16 45.64947 9.93506 29648 ft 453 kts 96°
2026-05-07 17:16 45.64950 9.97987 29177 ft 450 kts 96°
2026-05-07 17:17 45.64941 10.02430 28776 ft 444 kts 96°
2026-05-07 17:17 45.64925 10.06833 28338 ft 441 kts 96°
2026-05-07 17:17 45.64906 10.11252 27936 ft 437 kts 96°
2026-05-07 17:17 45.64889 10.15519 27495 ft 435 kts 96°
2026-05-07 17:18 45.64878 10.19828 27084 ft 432 kts 96°
2026-05-07 17:18 45.64867 10.24101 26677 ft 428 kts 95°
2026-05-07 17:18 45.64849 10.28335 26291 ft 425 kts 95°
2026-05-07 17:18 45.64839 10.32552 25889 ft 423 kts 95°
2026-05-07 17:19 45.64827 10.36740 25502 ft 420 kts 95°
2026-05-07 17:19 45.64809 10.40898 25117 ft 417 kts 95°
2026-05-07 17:19 45.64796 10.45029 24729 ft 414 kts 95°
2026-05-07 17:19 45.64797 10.49131 24359 ft 411 kts 94°
2026-05-07 17:20 45.64802 10.53207 23990 ft 409 kts 94°
2026-05-07 17:20 45.64807 10.57263 23604 ft 407 kts 94°
2026-05-07 17:20 45.64804 10.61295 23117 ft 405 kts 94°
2026-05-07 17:20 45.64792 10.65302 22728 ft 401 kts 95°
2026-05-07 17:21 45.64759 10.69267 22346 ft 397 kts 95°
2026-05-07 17:21 45.64719 10.73195 21956 ft 394 kts 95°
2026-05-07 17:21 45.64677 10.77097 21575 ft 391 kts 95°
2026-05-07 17:21 45.64636 10.80970 21183 ft 389 kts 95°
2026-05-07 17:22 45.64596 10.84821 20795 ft 386 kts 94°
2026-05-07 17:22 45.64535 10.88631 20422 ft 380 kts 96°
2026-05-07 17:22 45.64474 10.92394 20069 ft 378 kts 94°
2026-05-07 17:22 45.64451 10.96139 19692 ft 376 kts 94°
2026-05-07 17:23 45.64329 10.99849 19316 ft 371 kts 102°
2026-05-07 17:23 45.63721 11.03396 18953 ft 364 kts 114°
2026-05-07 17:23 45.62691 11.06650 18586 ft 357 kts 125°
2026-05-07 17:23 45.61374 11.09630 18243 ft 353 kts 128°
2026-05-07 17:24 45.60042 11.12565 17820 ft 352 kts 127°
2026-05-07 17:24 45.58719 11.15499 17425 ft 350 kts 127°
2026-05-07 17:24 45.57405 11.18408 17061 ft 347 kts 127°
2026-05-07 17:24 45.56105 11.21286 16682 ft 344 kts 127°
2026-05-07 17:25 45.54815 11.24145 16344 ft 341 kts 127°
2026-05-07 17:25 45.53536 11.26978 15977 ft 339 kts 127°
2026-05-07 17:25 45.52265 11.29791 15627 ft 336 kts 126°
2026-05-07 17:25 45.51007 11.32574 15290 ft 333 kts 126°
2026-05-07 17:26 45.49758 11.35338 14944 ft 331 kts 126°
2026-05-07 17:26 45.48531 11.38048 14605 ft 329 kts 126°
2026-05-07 17:26 45.47295 11.40777 14262 ft 327 kts 126°
2026-05-07 17:26 45.46066 11.43490 13930 ft 325 kts 126°
2026-05-07 17:27 45.44841 11.46188 13564 ft 324 kts 126°
2026-05-07 17:27 45.43603 11.48911 13185 ft 322 kts 126°
2026-05-07 17:27 45.42361 11.51547 12852 ft 318 kts 131°
2026-05-07 17:27 45.40928 11.53908 12594 ft 312 kts 136°
2026-05-07 17:28 45.39453 11.56144 12336 ft 308 kts 136°
2026-05-07 17:28 45.38001 11.58365 12083 ft 307 kts 136°
2026-05-07 17:28 45.36559 11.60609 11850 ft 308 kts 135°
2026-05-07 17:28 45.35181 11.62891 11593 ft 311 kts 126°
2026-05-07 17:29 45.34399 11.65773 11343 ft 318 kts 100°
2026-05-07 17:29 45.34395 11.68967 11042 ft 320 kts 85°
2026-05-07 17:29 45.34570 11.72077 10798 ft 320 kts 85°
2026-05-07 17:29 45.34742 11.75218 10543 ft 317 kts 85°
2026-05-07 17:30 45.34897 11.78332 10281 ft 313 kts 86°
2026-05-07 17:30 45.35020 11.81401 10026 ft 309 kts 91°
2026-05-07 17:30 45.34552 11.84320 9941 ft 297 kts 115°
2026-05-07 17:30 45.33433 11.86731 9573 ft 295 kts 133°
2026-05-07 17:31 45.32015 11.88796 9289 ft 290 kts 147°
2026-05-07 17:31 45.30201 11.89886 9039 ft 280 kts 173°
2026-05-07 17:31 45.28308 11.89791 8919 ft 266 kts 196°
2026-05-07 17:31 45.26644 11.88824 8907 ft 255 kts 216°
2026-05-07 17:32 45.25281 11.87254 8925 ft 253 kts 223°
2026-05-07 17:32 45.23963 11.85589 8922 ft 254 kts 224°
2026-05-07 17:32 45.22645 11.83907 8926 ft 255 kts 224°
2026-05-07 17:32 45.21325 11.82230 8927 ft 255 kts 224°
2026-05-07 17:33 45.20004 11.80565 8908 ft 253 kts 223°
2026-05-07 17:33 45.18671 11.78959 8892 ft 252 kts 214°
2026-05-07 17:33 45.16974 11.78266 8689 ft 257 kts 181°
2026-05-07 17:33 45.15250 11.78859 8348 ft 263 kts 154°
2026-05-07 17:34 45.13836 11.80497 8044 ft 267 kts 128°
2026-05-07 17:34 45.13067 11.82868 7769 ft 268 kts 100°
2026-05-07 17:34 45.13171 11.85468 7506 ft 266 kts 71°
2026-05-07 17:34 45.14069 11.87726 7244 ft 263 kts 49°
2026-05-07 17:35 45.15284 11.89648 7015 ft 261 kts 46°
2026-05-07 17:35 45.16492 11.91520 6924 ft 253 kts 46°
2026-05-07 17:35 45.17746 11.93198 6850 ft 244 kts 39°
2026-05-07 17:35 45.19026 11.94738 6708 ft 240 kts 39°
2026-05-07 17:36 45.20275 11.96281 6504 ft 237 kts 40°
2026-05-07 17:36 45.21501 11.97837 6288 ft 236 kts 40°
2026-05-07 17:36 45.22719 11.99400 6040 ft 235 kts 40°
2026-05-07 17:36 45.23931 12.00960 5803 ft 235 kts 40°
2026-05-07 17:37 45.25140 12.02521 5570 ft 234 kts 40°
2026-05-07 17:37 45.26343 12.04074 5338 ft 233 kts 40°
2026-05-07 17:37 45.27542 12.05621 5085 ft 233 kts 40°
2026-05-07 17:37 45.28739 12.07163 4862 ft 232 kts 40°
2026-05-07 17:38 45.29930 12.08699 4632 ft 231 kts 40°
2026-05-07 17:38 45.31115 12.10228 4377 ft 230 kts 41°
2026-05-07 17:38 45.32295 12.11751 4187 ft 228 kts 41°
2026-05-07 17:38 45.33472 12.13267 3911 ft 228 kts 41°
2026-05-07 17:39 45.34648 12.14782 3645 ft 229 kts 41°
2026-05-07 17:39 45.35824 12.16297 3414 ft 228 kts 41°
2026-05-07 17:39 45.37008 12.17821 3161 ft 229 kts 42°
2026-05-07 17:39 45.38195 12.19349 2959 ft 232 kts 42°
2026-05-07 17:40 45.39401 12.20900 2685 ft 235 kts 42°
2026-05-07 17:40 45.40619 12.22468 2361 ft 237 kts 43°
2026-05-07 17:40 45.41832 12.24028 2057 ft 230 kts 43°
2026-05-07 17:40 45.42988 12.25515 1759 ft 218 kts 44°
2026-05-07 17:41 45.44084 12.26925 1465 ft 206 kts 44°
2026-05-07 17:41 45.45118 12.28257 1191 ft 196 kts 44°
2026-05-07 17:41 45.46106 12.29525 944 ft 187 kts 45°
2026-05-07 17:41 45.46929 12.30584 752 ft 178 kts 45°
2026-05-07 17:42 45.47830 12.31734 625 ft 169 kts 44°
2026-05-07 17:42 45.48703 12.32857 234 ft 167 kts 45°
2026-05-07 17:42 45.49555 12.33952 26 ft 160 kts 45°
2026-05-07 17:42 45.50274 12.34892 14 ft 107 kts 38°
2026-05-07 17:43 45.50594 12.35048 14 ft 28 kts 324°
2026-05-07 17:43 45.50608 12.34799 14 ft 24 kts 266°
2026-05-07 17:43 45.50601 12.34538 15 ft 25 kts 267°
2026-05-07 17:43 45.50556 12.34326 15 ft 18 kts 257°
2026-05-07 17:44 45.50551 12.34223 15 ft 0 kts 268°